AAL1683 KDCA-KMIA

Flight info

Callsign AAL1683
Flight time 2h 4m
Altitude 38000
Route AMEEE1 SCOOB EARZZ SKARP Y313 HOAGG BNFSH3
Aircraft A319/M-SDE3GIRWZ/B1L

Departure

Time 2026-04-25 09:03
Airport Ronald Reagan Washington National Airport (KDCA)

Arrival

Time 2026-04-25 11:08
Airport Miami International Airport (KMIA)
Time Latitude Longitude Altitude Speed Heading
2026-04-25 08:34 38.85482 -77.04106 29 ft 0 kts 217°
2026-04-25 08:57 38.85492 -77.04096 25 ft 3 kts 210°
2026-04-25 08:57 38.85508 -77.04089 28 ft 3 kts 167°
2026-04-25 08:57 38.85525 -77.04096 25 ft 3 kts 141°
2026-04-25 08:57 38.85532 -77.04109 27 ft 3 kts 77°
2026-04-25 08:58 38.85527 -77.04132 27 ft 3 kts 72°
2026-04-25 08:58 38.85520 -77.04157 26 ft 3 kts 72°
2026-04-25 08:58 38.85516 -77.04173 25 ft 0 kts 72°
2026-04-25 09:00 38.85518 -77.04169 24 ft 2 kts 72°
2026-04-25 09:00 38.85528 -77.04128 27 ft 6 kts 72°
2026-04-25 09:01 38.85545 -77.04060 25 ft 9 kts 72°
2026-04-25 09:01 38.85569 -77.03974 24 ft 11 kts 45°
2026-04-25 09:01 38.85652 -77.03967 25 ft 14 kts 355°
2026-04-25 09:01 38.85759 -77.03977 27 ft 16 kts 356°
2026-04-25 09:02 38.85884 -77.03990 26 ft 20 kts 356°
2026-04-25 09:02 38.86009 -77.03954 24 ft 18 kts 16°
2026-04-25 09:02 38.86082 -77.03913 25 ft 7 kts 51°
2026-04-25 09:02 38.86065 -77.03869 23 ft 7 kts 163°
2026-04-25 09:03 38.85952 -77.03857 25 ft 39 kts 175°
2026-04-25 09:03 38.85446 -77.03806 25 ft 105 kts 175°
2026-04-25 09:03 38.84528 -77.03712 66 ft 155 kts 172°
2026-04-25 09:03 38.83473 -77.03622 765 ft 148 kts 174°
2026-04-25 09:04 38.82459 -77.03494 1471 ft 144 kts 167°
2026-04-25 09:04 38.81467 -77.03262 1949 ft 155 kts 168°
2026-04-25 09:04 38.80325 -77.02991 2271 ft 177 kts 169°
2026-04-25 09:04 38.79021 -77.02690 2582 ft 203 kts 171°
2026-04-25 09:05 38.77562 -77.02362 3036 ft 227 kts 172°
2026-04-25 09:05 38.75953 -77.02000 3715 ft 240 kts 171°
2026-04-25 09:05 38.74371 -77.01137 4409 ft 261 kts 149°
2026-04-25 09:05 38.72808 -76.99791 5096 ft 276 kts 147°
2026-04-25 09:06 38.71237 -76.98381 5980 ft 282 kts 147°
2026-04-25 09:06 38.69618 -76.96918 6894 ft 287 kts 147°
2026-04-25 09:06 38.67972 -76.95432 7749 ft 291 kts 147°
2026-04-25 09:06 38.66291 -76.93925 8646 ft 296 kts 147°
2026-04-25 09:07 38.64601 -76.92424 9521 ft 300 kts 148°
2026-04-25 09:07 38.62859 -76.90887 10346 ft 305 kts 148°
2026-04-25 09:07 38.61072 -76.89317 10730 ft 326 kts 148°
2026-04-25 09:07 38.59167 -76.87641 11302 ft 336 kts 147°
2026-04-25 09:08 38.57241 -76.85943 12072 ft 341 kts 147°
2026-04-25 09:08 38.55266 -76.84202 12846 ft 345 kts 147°
2026-04-25 09:08 38.53301 -76.82462 13648 ft 347 kts 147°
2026-04-25 09:08 38.51313 -76.80682 14339 ft 351 kts 146°
2026-04-25 09:09 38.49294 -76.78866 15004 ft 355 kts 146°
2026-04-25 09:09 38.47279 -76.77057 15642 ft 360 kts 146°
2026-04-25 09:09 38.45210 -76.75208 16275 ft 364 kts 146°
2026-04-25 09:09 38.43106 -76.73360 16903 ft 369 kts 149°
2026-04-25 09:10 38.40834 -76.71893 17506 ft 372 kts 160°
2026-04-25 09:10 38.38337 -76.70990 18125 ft 375 kts 172°
2026-04-25 09:10 38.35730 -76.70549 18654 ft 378 kts 175°
2026-04-25 09:10 38.33095 -76.70132 19201 ft 383 kts 174°
2026-04-25 09:11 38.27784 -76.69280 20299 ft 390 kts 174°
2026-04-25 09:11 38.25057 -76.68839 20839 ft 394 kts 174°
2026-04-25 09:11 38.22354 -76.68403 21375 ft 398 kts 174°
2026-04-25 09:12 38.19580 -76.67956 21901 ft 402 kts 174°
2026-04-25 09:12 38.16790 -76.67506 22423 ft 406 kts 174°
2026-04-25 09:12 38.14002 -76.67055 22937 ft 409 kts 174°
2026-04-25 09:12 38.11154 -76.66596 23437 ft 413 kts 174°
2026-04-25 09:13 38.08274 -76.66188 23876 ft 417 kts 176°
2026-04-25 09:13 38.05406 -76.65918 24317 ft 419 kts 178°
2026-04-25 09:13 38.02475 -76.65738 24759 ft 422 kts 179°
2026-04-25 09:13 37.99525 -76.65602 25190 ft 425 kts 180°
2026-04-25 09:14 37.96580 -76.65472 25606 ft 428 kts 180°
2026-04-25 09:14 37.93583 -76.65320 26028 ft 431 kts 179°
2026-04-25 09:14 37.90575 -76.65139 26446 ft 434 kts 179°
2026-04-25 09:14 37.87548 -76.64938 26856 ft 436 kts 179°
2026-04-25 09:15 37.84540 -76.64727 27269 ft 439 kts 178°
2026-04-25 09:15 37.81475 -76.64511 27684 ft 441 kts 179°
2026-04-25 09:15 37.78391 -76.64299 28092 ft 444 kts 179°
2026-04-25 09:15 37.75292 -76.64091 28499 ft 447 kts 179°
2026-04-25 09:16 37.72211 -76.63887 28900 ft 449 kts 179°
2026-04-25 09:16 37.69065 -76.63678 29311 ft 452 kts 179°
2026-04-25 09:16 37.65911 -76.63468 29711 ft 455 kts 179°
2026-04-25 09:16 37.62732 -76.63258 30074 ft 458 kts 179°
2026-04-25 09:17 37.56383 -76.63410 30720 ft 459 kts 189°
2026-04-25 09:17 37.53193 -76.63860 31050 ft 461 kts 189°
2026-04-25 09:17 37.50026 -76.64298 31368 ft 464 kts 189°
2026-04-25 09:18 37.46799 -76.64739 31684 ft 466 kts 189°
2026-04-25 09:18 37.43598 -76.65173 31992 ft 468 kts 189°
2026-04-25 09:18 37.40346 -76.65615 32309 ft 469 kts 189°
2026-04-25 09:18 37.37091 -76.66057 32755 ft 468 kts 189°
2026-04-25 09:19 37.33855 -76.66496 33191 ft 467 kts 189°
2026-04-25 09:19 37.30658 -76.66928 33616 ft 466 kts 189°
2026-04-25 09:19 37.27432 -76.67365 34015 ft 465 kts 190°
2026-04-25 09:19 37.24206 -76.67803 34383 ft 465 kts 190°
2026-04-25 09:20 37.21025 -76.68233 34736 ft 464 kts 190°
2026-04-25 09:20 37.17808 -76.68673 35082 ft 464 kts 190°
2026-04-25 09:20 37.14597 -76.69113 35432 ft 463 kts 190°
2026-04-25 09:20 37.11382 -76.69553 35774 ft 462 kts 190°
2026-04-25 09:21 37.08219 -76.69982 36104 ft 462 kts 190°
2026-04-25 09:21 37.05022 -76.70412 36427 ft 461 kts 191°
2026-04-25 09:21 37.01821 -76.70842 36744 ft 461 kts 191°
2026-04-25 09:21 36.98669 -76.71266 37050 ft 460 kts 191°
2026-04-25 09:22 36.95481 -76.71698 37337 ft 460 kts 191°
2026-04-25 09:22 36.92291 -76.72130 37677 ft 458 kts 191°
2026-04-25 09:22 36.89126 -76.72559 37849 ft 458 kts 191°
2026-04-25 09:23 36.82822 -76.73408 37869 ft 456 kts 191°
2026-04-25 09:23 36.76532 -76.74252 37873 ft 456 kts 191°
2026-04-25 09:24 36.70189 -76.75099 37876 ft 456 kts 190°
2026-04-25 09:24 36.63896 -76.75943 37874 ft 456 kts 190°
2026-04-25 09:25 36.57624 -76.76784 37870 ft 456 kts 190°
2026-04-25 09:25 36.51307 -76.77631 37851 ft 455 kts 190°
2026-04-25 09:26 36.45032 -76.78469 37841 ft 455 kts 189°
2026-04-25 09:26 36.38755 -76.79308 37850 ft 455 kts 189°
2026-04-25 09:27 36.32468 -76.80145 37854 ft 455 kts 189°
2026-04-25 09:27 36.26163 -76.80976 37862 ft 455 kts 189°
2026-04-25 09:28 36.19879 -76.81802 37868 ft 454 kts 189°
2026-04-25 09:28 36.13611 -76.82635 37875 ft 454 kts 189°
2026-04-25 09:29 36.07356 -76.83464 37877 ft 453 kts 189°
2026-04-25 09:29 36.01053 -76.84289 37864 ft 453 kts 189°
2026-04-25 09:30 35.94801 -76.85109 37871 ft 453 kts 189°
2026-04-25 09:30 35.88687 -76.86550 37873 ft 447 kts 201°
2026-04-25 09:31 35.82759 -76.88915 37885 ft 447 kts 201°
2026-04-25 09:31 35.76868 -76.91240 37885 ft 446 kts 200°
2026-04-25 09:32 35.70935 -76.93576 37891 ft 446 kts 200°
2026-04-25 09:32 35.65050 -76.95892 37898 ft 446 kts 200°
2026-04-25 09:33 35.59158 -76.98205 37903 ft 446 kts 200°
2026-04-25 09:33 35.53260 -77.00519 37890 ft 446 kts 200°
2026-04-25 09:34 35.47323 -77.02853 37892 ft 446 kts 200°
2026-04-25 09:34 35.41395 -77.05181 37896 ft 447 kts 200°
2026-04-25 09:35 35.35495 -77.07486 37897 ft 447 kts 200°
2026-04-25 09:35 35.29587 -77.09786 37893 ft 446 kts 200°
2026-04-25 09:36 35.23646 -77.12102 37900 ft 446 kts 200°
2026-04-25 09:36 35.17747 -77.14395 37896 ft 447 kts 200°
2026-04-25 09:37 35.11850 -77.16692 37917 ft 446 kts 200°
2026-04-25 09:37 35.05916 -77.19000 37909 ft 446 kts 199°
2026-04-25 09:38 35.00010 -77.21280 37914 ft 446 kts 199°
2026-04-25 09:38 34.94102 -77.23563 37908 ft 446 kts 199°
2026-04-25 09:39 34.88207 -77.25839 37915 ft 446 kts 199°
2026-04-25 09:39 34.82281 -77.28129 37912 ft 445 kts 199°
2026-04-25 09:40 34.73438 -77.31539 37917 ft 445 kts 199°
2026-04-25 09:40 34.67559 -77.33800 37918 ft 445 kts 199°
2026-04-25 09:41 34.61673 -77.36050 37917 ft 445 kts 199°
2026-04-25 09:41 34.55756 -77.38315 37912 ft 445 kts 199°
2026-04-25 09:42 34.49869 -77.40568 37913 ft 445 kts 198°
2026-04-25 09:42 34.43808 -77.41987 37912 ft 446 kts 190°
2026-04-25 09:43 34.37651 -77.43185 37912 ft 446 kts 190°
2026-04-25 09:43 34.31549 -77.44380 37903 ft 446 kts 189°
2026-04-25 09:44 34.26449 -77.45377 37904 ft 446 kts 189°
2026-04-25 09:44 34.19294 -77.46770 37903 ft 447 kts 189°
2026-04-25 09:45 34.13163 -77.47967 37911 ft 447 kts 189°
2026-04-25 09:45 34.08046 -77.48964 37916 ft 447 kts 189°
2026-04-25 09:46 34.01926 -77.50157 37929 ft 447 kts 189°
2026-04-25 09:46 33.95794 -77.51348 37933 ft 447 kts 189°
2026-04-25 09:47 33.89659 -77.52533 37933 ft 447 kts 189°
2026-04-25 09:47 33.83507 -77.53723 37937 ft 447 kts 189°
2026-04-25 09:48 33.77395 -77.54898 37943 ft 446 kts 189°
2026-04-25 09:48 33.71256 -77.56087 37943 ft 445 kts 189°
2026-04-25 09:49 33.65160 -77.57267 37943 ft 445 kts 189°
2026-04-25 09:49 33.59059 -77.58437 37940 ft 445 kts 190°
2026-04-25 09:50 33.53102 -77.60351 37941 ft 444 kts 197°
2026-04-25 09:50 33.47182 -77.62431 37939 ft 444 kts 197°
2026-04-25 09:51 33.41256 -77.64510 37939 ft 444 kts 196°
2026-04-25 09:51 33.35329 -77.66576 37941 ft 444 kts 196°
2026-04-25 09:52 33.29380 -77.68647 37936 ft 444 kts 197°
2026-04-25 09:52 33.23468 -77.70700 37940 ft 444 kts 197°
2026-04-25 09:53 33.17568 -77.72761 37939 ft 444 kts 197°
2026-04-25 09:53 33.11618 -77.74839 37936 ft 444 kts 197°
2026-04-25 09:54 33.05704 -77.76886 37940 ft 444 kts 198°
2026-04-25 09:54 32.99791 -77.78930 37938 ft 444 kts 198°
2026-04-25 09:55 32.93833 -77.80990 37938 ft 444 kts 198°
2026-04-25 09:55 32.87917 -77.83033 37937 ft 444 kts 198°
2026-04-25 09:56 32.82006 -77.85067 37936 ft 444 kts 198°
2026-04-25 09:56 32.76053 -77.87119 37936 ft 444 kts 198°
2026-04-25 09:57 32.70143 -77.89149 37937 ft 444 kts 197°
2026-04-25 09:57 32.64224 -77.91166 37940 ft 444 kts 197°
2026-04-25 09:58 32.58270 -77.93109 37943 ft 444 kts 196°
2026-04-25 09:58 32.52282 -77.95020 37950 ft 444 kts 197°
2026-04-25 09:59 32.46346 -77.96921 37939 ft 444 kts 197°
2026-04-25 09:59 32.40404 -77.98848 37936 ft 444 kts 197°
2026-04-25 10:00 32.34412 -78.00792 37939 ft 445 kts 197°
2026-04-25 10:00 32.28459 -78.02717 37938 ft 445 kts 197°
2026-04-25 10:01 32.22504 -78.04634 37944 ft 445 kts 197°
2026-04-25 10:01 32.16555 -78.06541 37946 ft 445 kts 197°
2026-04-25 10:02 32.10558 -78.08460 37953 ft 445 kts 197°
2026-04-25 10:02 32.04619 -78.10371 37943 ft 444 kts 197°
2026-04-25 10:03 31.98637 -78.12286 37945 ft 444 kts 197°
2026-04-25 10:03 31.92687 -78.14190 37949 ft 444 kts 197°
2026-04-25 10:04 31.86738 -78.16102 37951 ft 444 kts 197°
2026-04-25 10:04 31.80790 -78.18004 37953 ft 444 kts 197°
2026-04-25 10:05 31.74812 -78.19904 37947 ft 444 kts 197°
2026-04-25 10:05 31.68861 -78.21789 37952 ft 444 kts 197°
2026-04-25 10:06 31.62912 -78.23680 37952 ft 444 kts 197°
2026-04-25 10:06 31.56970 -78.25572 37948 ft 444 kts 197°
2026-04-25 10:07 31.50981 -78.27476 37944 ft 444 kts 197°
2026-04-25 10:07 31.45032 -78.29367 37956 ft 444 kts 198°
2026-04-25 10:08 31.39110 -78.31333 37960 ft 444 kts 198°
2026-04-25 10:08 31.33207 -78.33338 37963 ft 444 kts 198°
2026-04-25 10:09 31.27257 -78.35343 37963 ft 444 kts 198°
2026-04-25 10:09 31.21338 -78.37319 37958 ft 443 kts 198°
2026-04-25 10:10 31.15396 -78.39299 37961 ft 443 kts 198°
2026-04-25 10:10 31.09489 -78.41261 37963 ft 443 kts 198°
2026-04-25 10:11 31.03580 -78.43226 37963 ft 443 kts 198°
2026-04-25 10:11 30.97666 -78.45194 37961 ft 443 kts 198°
2026-04-25 10:12 30.91751 -78.47162 37960 ft 443 kts 198°
2026-04-25 10:13 30.82887 -78.50092 37965 ft 442 kts 198°
2026-04-25 10:13 30.76949 -78.52042 37973 ft 442 kts 198°
2026-04-25 10:14 30.71049 -78.53994 37967 ft 442 kts 198°
2026-04-25 10:14 30.65150 -78.55945 37969 ft 442 kts 198°
2026-04-25 10:15 30.59214 -78.57908 37966 ft 442 kts 198°
2026-04-25 10:15 30.53315 -78.59855 37973 ft 442 kts 198°
2026-04-25 10:16 30.47416 -78.61795 37977 ft 442 kts 198°
2026-04-25 10:16 30.41513 -78.63725 37974 ft 441 kts 198°
2026-04-25 10:17 30.35622 -78.65645 37975 ft 441 kts 198°
2026-04-25 10:17 30.29698 -78.67590 37973 ft 440 kts 198°
2026-04-25 10:18 30.23819 -78.69510 37953 ft 440 kts 199°
2026-04-25 10:18 30.17927 -78.71432 37946 ft 442 kts 199°
2026-04-25 10:19 30.12022 -78.73362 37949 ft 442 kts 199°
2026-04-25 10:19 30.06111 -78.75293 37951 ft 443 kts 199°
2026-04-25 10:20 30.00150 -78.77232 37955 ft 444 kts 199°
2026-04-25 10:20 29.94230 -78.79152 37960 ft 444 kts 199°
2026-04-25 10:21 29.88302 -78.81072 37962 ft 444 kts 199°
2026-04-25 10:21 29.82329 -78.83003 37967 ft 444 kts 199°
2026-04-25 10:22 29.76328 -78.84556 37967 ft 447 kts 189°
2026-04-25 10:22 29.70126 -78.85393 37966 ft 448 kts 190°
2026-04-25 10:23 29.63957 -78.86223 37962 ft 448 kts 189°
2026-04-25 10:23 29.57799 -78.87056 37963 ft 447 kts 190°
2026-04-25 10:24 29.51643 -78.87891 37967 ft 448 kts 190°
2026-04-25 10:24 29.45425 -78.88724 37971 ft 448 kts 190°
2026-04-25 10:25 29.39265 -78.89554 37977 ft 448 kts 190°
2026-04-25 10:25 29.33063 -78.90378 37969 ft 448 kts 190°
2026-04-25 10:26 29.26899 -78.91200 37978 ft 447 kts 190°
2026-04-25 10:26 29.20737 -78.92030 37978 ft 447 kts 190°
2026-04-25 10:27 29.14579 -78.92861 37981 ft 447 kts 190°
2026-04-25 10:27 29.08391 -78.93690 37981 ft 447 kts 190°
2026-04-25 10:28 29.02247 -78.94510 37977 ft 446 kts 190°
2026-04-25 10:28 28.96069 -78.95332 37982 ft 446 kts 190°
2026-04-25 10:29 28.89907 -78.96143 37984 ft 446 kts 190°
2026-04-25 10:29 28.83773 -78.96952 37984 ft 445 kts 190°
2026-04-25 10:30 28.77643 -78.97763 37965 ft 445 kts 190°
2026-04-25 10:30 28.71502 -78.98577 37976 ft 445 kts 190°
2026-04-25 10:31 28.65327 -78.99394 37973 ft 445 kts 190°
2026-04-25 10:31 28.59203 -79.00209 37979 ft 445 kts 190°
2026-04-25 10:32 28.53079 -79.01019 37968 ft 445 kts 190°
2026-04-25 10:32 28.46907 -79.01837 37971 ft 445 kts 190°
2026-04-25 10:33 28.40778 -79.02646 37979 ft 444 kts 189°
2026-04-25 10:33 28.34661 -79.03524 37977 ft 442 kts 195°
2026-04-25 10:34 28.28833 -79.05529 37975 ft 438 kts 201°
2026-04-25 10:34 28.23029 -79.07700 37967 ft 439 kts 201°
2026-04-25 10:35 28.17241 -79.09849 37961 ft 439 kts 202°
2026-04-25 10:35 28.11475 -79.12000 37968 ft 438 kts 202°
2026-04-25 10:36 28.05702 -79.14151 37970 ft 438 kts 202°
2026-04-25 10:36 27.99885 -79.16306 37971 ft 438 kts 202°
2026-04-25 10:37 27.94107 -79.18452 37952 ft 438 kts 202°
2026-04-25 10:37 27.88319 -79.20605 37952 ft 438 kts 203°
2026-04-25 10:38 27.82538 -79.22744 37956 ft 439 kts 203°
2026-04-25 10:38 27.76747 -79.24884 37958 ft 439 kts 203°
2026-04-25 10:39 27.70922 -79.27039 37958 ft 439 kts 203°
2026-04-25 10:39 27.65137 -79.29177 37948 ft 439 kts 202°
2026-04-25 10:39 27.62208 -79.30261 37713 ft 448 kts 203°
2026-04-25 10:40 27.59228 -79.31369 37285 ft 460 kts 203°
2026-04-25 10:40 27.56165 -79.32500 36842 ft 462 kts 202°
2026-04-25 10:40 27.53143 -79.33609 36373 ft 460 kts 202°
2026-04-25 10:40 27.50098 -79.34723 35908 ft 457 kts 202°
2026-04-25 10:41 27.47110 -79.35813 35409 ft 455 kts 202°
2026-04-25 10:41 27.44108 -79.36911 34916 ft 452 kts 202°
2026-04-25 10:41 27.41112 -79.38006 34383 ft 450 kts 202°
2026-04-25 10:41 27.38162 -79.39088 33844 ft 449 kts 202°
2026-04-25 10:42 27.35183 -79.40182 33258 ft 446 kts 202°
2026-04-25 10:42 27.32228 -79.41267 32717 ft 443 kts 202°
2026-04-25 10:42 27.29333 -79.42327 32159 ft 441 kts 202°
2026-04-25 10:42 27.26413 -79.43401 31587 ft 439 kts 201°
2026-04-25 10:43 27.23513 -79.44467 31017 ft 437 kts 201°
2026-04-25 10:43 27.20656 -79.45513 30469 ft 435 kts 201°
2026-04-25 10:43 27.17771 -79.46567 29886 ft 433 kts 201°
2026-04-25 10:43 27.14941 -79.47601 29300 ft 430 kts 201°
2026-04-25 10:44 27.12133 -79.48623 28752 ft 426 kts 201°
2026-04-25 10:44 27.09304 -79.49651 28200 ft 422 kts 201°
2026-04-25 10:44 27.06520 -79.50666 27646 ft 418 kts 202°
2026-04-25 10:44 27.03796 -79.51661 27127 ft 415 kts 202°
2026-04-25 10:45 27.01053 -79.52663 26584 ft 411 kts 202°
2026-04-25 10:45 26.98345 -79.53653 26057 ft 409 kts 202°
2026-04-25 10:45 26.95675 -79.54626 25541 ft 406 kts 202°
2026-04-25 10:45 26.92995 -79.55600 25049 ft 403 kts 202°
2026-04-25 10:46 26.90326 -79.56568 24557 ft 401 kts 202°
2026-04-25 10:46 26.87700 -79.57520 24083 ft 399 kts 202°
2026-04-25 10:46 26.85050 -79.58481 23610 ft 397 kts 202°
2026-04-25 10:46 26.82456 -79.59421 23118 ft 394 kts 202°
2026-04-25 10:47 26.79848 -79.60363 22673 ft 389 kts 202°
2026-04-25 10:47 26.77275 -79.61289 22210 ft 385 kts 202°
2026-04-25 10:47 26.74770 -79.62190 21773 ft 380 kts 202°
2026-04-25 10:47 26.72257 -79.63094 21312 ft 376 kts 202°
2026-04-25 10:48 26.69809 -79.63976 20860 ft 372 kts 202°
2026-04-25 10:48 26.67345 -79.64863 20388 ft 369 kts 202°
2026-04-25 10:48 26.64902 -79.65740 19921 ft 366 kts 202°
2026-04-25 10:48 26.62513 -79.66598 19443 ft 364 kts 202°
2026-04-25 10:49 26.60102 -79.67456 18961 ft 362 kts 202°
2026-04-25 10:49 26.57696 -79.68299 18465 ft 361 kts 201°
2026-04-25 10:49 26.55329 -79.69123 17940 ft 360 kts 201°
2026-04-25 10:49 26.52941 -79.69954 17435 ft 357 kts 201°
2026-04-25 10:50 26.50567 -79.70781 16934 ft 354 kts 201°
2026-04-25 10:50 26.48232 -79.71622 16441 ft 350 kts 205°
2026-04-25 10:50 26.46100 -79.72805 15969 ft 342 kts 216°
2026-04-25 10:50 26.44224 -79.74433 15677 ft 344 kts 227°
2026-04-25 10:51 26.42581 -79.76390 15409 ft 346 kts 231°
2026-04-25 10:51 26.40958 -79.78369 15133 ft 345 kts 231°
2026-04-25 10:51 26.39352 -79.80313 14857 ft 344 kts 231°
2026-04-25 10:51 26.37829 -79.82386 14581 ft 341 kts 238°
2026-04-25 10:52 26.36490 -79.84516 14339 ft 336 kts 238°
2026-04-25 10:52 26.35172 -79.86610 14221 ft 322 kts 238°
2026-04-25 10:52 26.33912 -79.88618 14086 ft 310 kts 238°
2026-04-25 10:52 26.32693 -79.90570 13864 ft 303 kts 238°
2026-04-25 10:53 26.31508 -79.92470 13759 ft 302 kts 238°
2026-04-25 10:53 26.30305 -79.94396 13555 ft 301 kts 238°
2026-04-25 10:53 26.29120 -79.96287 13374 ft 300 kts 238°
2026-04-25 10:53 26.27922 -79.98198 13208 ft 299 kts 238°
2026-04-25 10:54 26.26691 -80.00078 13014 ft 300 kts 232°
2026-04-25 10:54 26.25695 -80.01150 12872 ft 302 kts 221°
2026-04-25 10:54 26.23217 -80.02632 12608 ft 307 kts 200°
2026-04-25 10:54 26.21149 -80.03151 12398 ft 308 kts 194°
2026-04-25 10:55 26.19047 -80.03625 12199 ft 307 kts 194°
2026-04-25 10:55 26.16953 -80.04101 11996 ft 305 kts 194°
2026-04-25 10:55 26.14897 -80.04571 11795 ft 304 kts 194°
2026-04-25 10:55 26.12822 -80.05048 11584 ft 303 kts 194°
2026-04-25 10:56 26.10754 -80.05524 11382 ft 302 kts 194°
2026-04-25 10:56 26.08723 -80.05991 11183 ft 300 kts 194°
2026-04-25 10:56 26.06675 -80.06458 10983 ft 299 kts 194°
2026-04-25 10:56 26.04637 -80.06954 10719 ft 297 kts 195°
2026-04-25 10:57 26.02647 -80.07470 10473 ft 296 kts 196°
2026-04-25 10:57 26.00649 -80.08000 10240 ft 294 kts 196°
2026-04-25 10:57 25.98659 -80.08527 9991 ft 293 kts 196°
2026-04-25 10:57 25.96697 -80.09044 9733 ft 291 kts 196°
2026-04-25 10:58 25.94724 -80.09561 9482 ft 290 kts 196°
2026-04-25 10:58 25.92844 -80.10322 9247 ft 286 kts 210°
2026-04-25 10:58 25.91236 -80.11555 8999 ft 283 kts 224°
2026-04-25 10:58 25.89885 -80.13144 8758 ft 282 kts 230°
2026-04-25 10:59 25.88722 -80.14896 8515 ft 280 kts 243°
2026-04-25 10:59 25.88037 -80.16914 8277 ft 279 kts 258°
2026-04-25 10:59 25.87860 -80.19031 8039 ft 278 kts 270°
2026-04-25 10:59 25.87819 -80.21192 7723 ft 279 kts 269°
2026-04-25 11:00 25.87756 -80.23319 7393 ft 279 kts 268°
2026-04-25 11:00 25.87683 -80.25470 7066 ft 278 kts 268°
2026-04-25 11:00 25.87605 -80.27623 6741 ft 278 kts 268°
2026-04-25 11:00 25.87530 -80.29775 6415 ft 279 kts 268°
2026-04-25 11:01 25.87473 -80.31945 5989 ft 281 kts 269°
2026-04-25 11:01 25.87416 -80.34081 5657 ft 279 kts 268°
2026-04-25 11:01 25.87334 -80.36239 5361 ft 278 kts 267°
2026-04-25 11:01 25.87228 -80.38387 5060 ft 277 kts 267°
2026-04-25 11:02 25.87107 -80.40490 4901 ft 275 kts 266°
2026-04-25 11:02 25.86970 -80.42638 4820 ft 277 kts 266°
2026-04-25 11:02 25.86827 -80.44778 4721 ft 277 kts 266°
2026-04-25 11:02 25.86684 -80.46891 4625 ft 276 kts 266°
2026-04-25 11:03 25.86514 -80.49012 4526 ft 272 kts 261°
2026-04-25 11:03 25.85728 -80.50829 4445 ft 258 kts 225°
2026-04-25 11:03 25.84206 -80.51782 4051 ft 256 kts 188°
2026-04-25 11:03 25.82492 -80.51522 3809 ft 248 kts 155°
2026-04-25 11:04 25.81085 -80.50478 3592 ft 240 kts 132°
2026-04-25 11:04 25.80185 -80.48988 3407 ft 233 kts 116°
2026-04-25 11:04 25.79508 -80.47363 3127 ft 229 kts 104°
2026-04-25 11:04 25.79384 -80.46210 2921 ft 224 kts 88°
2026-04-25 11:05 25.79487 -80.43967 2499 ft 212 kts 87°
2026-04-25 11:05 25.79558 -80.42376 2218 ft 200 kts 87°
2026-04-25 11:05 25.79622 -80.40869 1952 ft 192 kts 87°
2026-04-25 11:05 25.79685 -80.39432 1708 ft 184 kts 87°
2026-04-25 11:06 25.79746 -80.38033 1428 ft 175 kts 87°
2026-04-25 11:06 25.79799 -80.36758 1216 ft 155 kts 88°
2026-04-25 11:06 25.79844 -80.35633 1013 ft 136 kts 87°
2026-04-25 11:06 25.79884 -80.34612 839 ft 129 kts 87°
2026-04-25 11:07 25.79925 -80.33638 676 ft 127 kts 86°
2026-04-25 11:07 25.79969 -80.32658 492 ft 126 kts 86°
2026-04-25 11:07 25.80009 -80.31680 324 ft 126 kts 86°
2026-04-25 11:07 25.80046 -80.30716 159 ft 126 kts 86°
2026-04-25 11:08 25.80087 -80.29746 16 ft 118 kts 87°
2026-04-25 11:08 25.80119 -80.28985 17 ft 75 kts 87°
2026-04-25 11:08 25.80135 -80.28575 16 ft 41 kts 87°
2026-04-25 11:08 25.80136 -80.28338 17 ft 21 kts 95°
2026-04-25 11:09 25.80104 -80.28235 14 ft 12 kts 138°
2026-04-25 11:09 25.80040 -80.28267 15 ft 13 kts 260°
2026-04-25 11:09 25.80033 -80.28381 15 ft 16 kts 266°
2026-04-25 11:09 25.80028 -80.28516 15 ft 19 kts 268°
2026-04-25 11:10 25.80022 -80.28664 16 ft 19 kts 268°
2026-04-25 11:10 25.80018 -80.28759 17 ft 15 kts 268°
2026-04-25 11:10 25.79933 -80.28827 16 ft 16 kts 177°
2026-04-25 11:10 25.79811 -80.28821 15 ft 19 kts 177°
2026-04-25 11:11 25.79689 -80.28815 15 ft 10 kts 177°
2026-04-25 11:11 25.79641 -80.28753 15 ft 14 kts 94°
2026-04-25 11:11 25.79650 -80.28628 15 ft 18 kts 87°
2026-04-25 11:11 25.79668 -80.28474 15 ft 23 kts 85°
2026-04-25 11:12 25.79675 -80.28304 15 ft 15 kts 89°
2026-04-25 11:12 25.79640 -80.28194 17 ft 15 kts 108°
2026-04-25 11:12 25.79603 -80.28090 15 ft 13 kts 115°
2026-04-25 11:12 25.79594 -80.28049 15 ft 5 kts 70°
2026-04-25 11:13 25.79624 -80.28028 15 ft 2 kts 27°
2026-04-25 11:13 25.79629 -80.28025 15 ft 0 kts 27°